"Pseudo-MPEC" for P10QBFL

Created 2019 Aug 16 0:07:04 UT using Find_Orb

Click here for an explanation of pseudo-MPECs

 
 Astrometry: 
     P10QBFL  C2019 08 12`EbnBCadB,w:g#nu[ZmEK2U)l4Astrometry80Eqk+pTS9w;#sGTF51
     P10QBFL  C2019 08 12g4X5c9predacted;W9uCHXi]J(Akg8yt+v5bJ7=7%u'ihQclick'F51
     P10QBFL  C2019 08 12LwP^herefg.fofor*X6BW0M.5Xk,Ip'P9p[explanationmQaj'EF51
     P10QBFL ^C2019 08 13.52397100 43 47.165+37 28 31.36   ~8DI7 21.34GVNEOCP568
     P10QBFL ^C2019 08 13.52557300 43 47.117+37 28 35.32   ~8DI7 21.31GVNEOCP568
     P10QBFL ^C2019 08 13.52712000 43 47.077+37 28 39.03   ~8DI7 21.43GVNEOCP568
     P10QBFL ^C2019 08 15.52741800 43 02.060+38 46 21.39   ~8FLb 22.02GVNEOCP568
     P10QBFL ^C2019 08 15.52903700 43 02.003+38 46 25.12   ~8FLb 21.74GVNEOCP568
     P10QBFL ^C2019 08 15.53058400 43 01.947+38 46 28.69   ~8FLb 21.70GVNEOCP568

Station data:
(568) Mauna Kea  (N19.826116 W155.472200)  US/Hawaii.
(F51) Pan-STARRS 1, Haleakala  (N20.707235 W156.255910)  US/Hawaii.
   Observers N. Primak, A. Schultz, S. Watters, J. Thiel, T. Goggia. Measurer
   PS1 Science Consortium. 1.8-m Ritchey-Chrétien + CCD.

Orbital elements:  P10QBFL
   Perihelion 2019 Jun 17.708915 +/- 0.741 TT = 17:00:50 (JD 2458652.208915)
Epoch 2019 Aug 15.0 TT = JDT 2458710.5   Earth MOID: 0.1707   AutoNEOCP
M  24.93633021 +/- 1.6              (J2000 ecliptic)
n   0.42778977 +/- 0.0232           Peri.  348.94072 +/- 0.6
a   1.74441220 +/- 0.063            Node   304.06886 +/- 0.7
e   0.3220534 +/- 0.0195            Incl.   19.39140 +/- 0.56
P   2.30/841.52d           H 21.0   G  0.15   U 10.2  
q 1.18261815 +/- 0.00929    Q 2.30620626 +/- 0.122
From 9 observations 2019 Aug. 12-15; mean residual 0".06
Residuals in arcseconds: 
190812 F51  .02+  .13+    190813 568  .04+  .09-    190815 568  .01+  .01-    
190812 F51  .11-  .01+    190813 568  .02-  .04+    190815 568  .00   .00     
190812 F51  .09+  .15-    190813 568  .00   .05+    190815 568  .02-  .01+    

Ephemerides (geocentric):
Date (UTC) HH   RA              Dec         delta   r     elong  mag " sig PA
---- -- -- --  -------------   -----------  ------ ------ -----  --- ---- ---
2019 08 16 00  00 42 48.824   +39 04 11.36  .50806 1.2915 111.9 21.9 .413  67
2019 08 16 01  00 42 47.642   +39 05 45.68  .50810 1.2917 111.9 21.9 .437  68
2019 08 16 02  00 42 46.453   +39 07 19.93  .50813 1.2918 112.0 21.9 .462  69
2019 08 16 03  00 42 45.257   +39 08 54.10  .50817 1.2920 112.0 21.9 .488  70
2019 08 16 04  00 42 44.054   +39 10 28.19  .50821 1.2921 112.0 21.9 .515  71
2019 08 16 05  00 42 42.844   +39 12 02.20  .50825 1.2922 112.0 21.9 .542  72
2019 08 16 06  00 42 41.628   +39 13 36.13  .50829 1.2924 112.0 21.9 .571  73
2019 08 16 07  00 42 40.404   +39 15 09.98  .50833 1.2925 112.1 21.9 .600  73
2019 08 16 08  00 42 39.173   +39 16 43.75  .50837 1.2927 112.1 21.9 .629  74
2019 08 16 09  00 42 37.936   +39 18 17.45  .50841 1.2928 112.1 21.9 .660  75
2019 08 16 10  00 42 36.691   +39 19 51.06  .50845 1.2929 112.1 21.9 .691  75
2019 08 16 11  00 42 35.440   +39 21 24.59  .50849 1.2931 112.1 21.9 .722  76
2019 08 16 12  00 42 34.182   +39 22 58.04  .50853 1.2932 112.2 21.9 .755  76
2019 08 16 13  00 42 32.916   +39 24 31.41  .50857 1.2934 112.2 21.9 .788  77
2019 08 16 14  00 42 31.644   +39 26 04.70  .50861 1.2935 112.2 21.9 .822  77
2019 08 16 15  00 42 30.364   +39 27 37.91  .50865 1.2936 112.2 21.9 .856  78
2019 08 16 16  00 42 29.078   +39 29 11.04  .50869 1.2938 112.2 21.9 .891  78
2019 08 16 17  00 42 27.785   +39 30 44.09  .50873 1.2939 112.2 21.9 .927  78
2019 08 16 18  00 42 26.484   +39 32 17.06  .50877 1.2941 112.3 21.9 .964  79
2019 08 16 19  00 42 25.177   +39 33 49.95  .50881 1.2942 112.3 21.9 1.00  79
2019 08 16 20  00 42 23.863   +39 35 22.76  .50885 1.2944 112.3 21.9 1.04  79
2019 08 16 21  00 42 22.542   +39 36 55.48  .50889 1.2945 112.3 21.9 1.08  80
2019 08 16 22  00 42 21.213   +39 38 28.13  .50893 1.2946 112.3 21.9 1.12  80
2019 08 16 23  00 42 19.878   +39 40 00.70  .50897 1.2948 112.4 21.9 1.16  80
2019 08 17 00  00 42 18.536   +39 41 33.18  .50902 1.2949 112.4 21.9 1.20  80
2019 08 17 01  00 42 17.186   +39 43 05.58  .50906 1.2951 112.4 21.9 1.24  80
2019 08 17 02  00 42 15.830   +39 44 37.91  .50910 1.2952 112.4 21.9 1.28  81
2019 08 17 03  00 42 14.466   +39 46 10.15  .50914 1.2953 112.4 21.9 1.32  81
2019 08 17 04  00 42 13.096   +39 47 42.31  .50918 1.2955 112.4 21.9 1.37  81
2019 08 17 05  00 42 11.719   +39 49 14.38  .50922 1.2956 112.5 21.9 1.41  81
2019 08 17 06  00 42 10.334   +39 50 46.38  .50926 1.2958 112.5 21.9 1.46  81
2019 08 17 07  00 42 08.943   +39 52 18.29  .50930 1.2959 112.5 21.9 1.50  82
2019 08 17 08  00 42 07.544   +39 53 50.13  .50935 1.2960 112.5 21.9 1.55  82
2019 08 17 09  00 42 06.138   +39 55 21.88  .50939 1.2962 112.5 21.9 1.59  82
2019 08 17 10  00 42 04.726   +39 56 53.55  .50943 1.2963 112.6 21.9 1.64  82
2019 08 17 11  00 42 03.306   +39 58 25.13  .50947 1.2965 112.6 21.9 1.69  82
2019 08 17 12  00 42 01.879   +39 59 56.64  .50951 1.2966 112.6 21.9 1.74  82
2019 08 17 13  00 42 00.445   +40 01 28.06  .50956 1.2968 112.6 21.9 1.79  82
2019 08 17 14  00 41 59.004   +40 02 59.40  .50960 1.2969 112.6 21.9 1.84  82
2019 08 17 15  00 41 57.556   +40 04 30.66  .50964 1.2970 112.7 21.9 1.89  83
2019 08 17 16  00 41 56.101   +40 06 01.84  .50968 1.2972 112.7 21.9 1.94  83
2019 08 17 17  00 41 54.639   +40 07 32.93  .50972 1.2973 112.7 21.9 1.99  83
2019 08 17 18  00 41 53.170   +40 09 03.95  .50977 1.2975 112.7 21.9 2.05  83
2019 08 17 19  00 41 51.694   +40 10 34.88  .50981 1.2976 112.7 21.9 2.10  83
2019 08 17 20  00 41 50.210   +40 12 05.72  .50985 1.2978 112.7 21.9 2.15  83
2019 08 17 21  00 41 48.720   +40 13 36.49  .50989 1.2979 112.8 21.9 2.21  83
2019 08 17 22  00 41 47.223   +40 15 07.17  .50994 1.2980 112.8 21.9 2.27  83
2019 08 17 23  00 41 45.718   +40 16 37.76  .50998 1.2982 112.8 21.9 2.32  83